This is the latest recevied weather packets stored in our database for station/object DH9NFM-12. If no packets are shown the sender has not sent any weather packets the latest 10 day(s).
| Time | Temp. | Humidity | Pressure | Rain* | Wind** | Luminosity | Snow |
|---|---|---|---|---|---|---|---|
| 1777635244 | 17.22° C | 51% | 1025.9 hPa | 0 mm | - | - | - |
| 1777634620 | 16.67° C | 51% | 1026 hPa | 0 mm | - | - | - |
| 1777633995 | 16.67° C | 52% | 1026.1 hPa | 0 mm | - | - | - |
| 1777633370 | 16.67° C | 51% | 1026.2 hPa | 0 mm | - | - | - |
| 1777632746 | 16.67° C | 51% | 1026.2 hPa | 0 mm | - | - | - |
| 1777632121 | 16.11° C | 52% | 1026.4 hPa | 0 mm | - | - | - |
| 1777631496 | 16.11° C | 51% | 1026.3 hPa | 0 mm | - | - | - |
| 1777630872 | 15.56° C | 52% | 1026.5 hPa | 0 mm | - | - | - |
| 1777630247 | 15° C | 55% | 1026.5 hPa | 0 mm | - | - | - |
| 1777629622 | 15° C | 55% | 1026.6 hPa | 0 mm | - | - | - |
| 1777628998 | 14.44° C | 54% | 1026.5 hPa | 0 mm | - | - | - |
| 1777628373 | 14.44° C | 55% | 1026.5 hPa | 0 mm | - | - | - |
| 1777627748 | 14.44° C | 59% | 1026.6 hPa | 0 mm | - | - | - |
| 1777627124 | 13.89° C | 58% | 1026.7 hPa | 0 mm | - | - | - |
| 1777626499 | 13.33° C | 57% | 1026.8 hPa | 0 mm | - | - | - |
| 1777625875 | 13.33° C | 59% | 1026.7 hPa | 0 mm | - | - | - |
| 1777625250 | 13.89° C | 58% | 1026.7 hPa | 0 mm | - | - | - |
| 1777624625 | 13.33° C | 56% | 1026.7 hPa | 0 mm | - | - | - |
| 1777624001 | 13.33° C | 59% | 1026.8 hPa | 0 mm | - | - | - |
| 1777623376 | 13.89° C | 57% | 1026.8 hPa | 0 mm | - | - | - |
| 1777622751 | 13.33° C | 57% | 1026.7 hPa | 0 mm | - | - | - |
| 1777622127 | 12.78° C | 59% | 1026.7 hPa | 0 mm | - | - | - |
| 1777621502 | 12.78° C | 57% | 1026.5 hPa | 0 mm | - | - | - |
| 1777620877 | 12.78° C | 58% | 1026.5 hPa | 0 mm | - | - | - |
| 1777620253 | 12.22° C | 59% | 1026.5 hPa | 0 mm | - | - | - |
* Rain latest hour (hover to see other rain measurements)
** Current wind speed in m/s (hover to see current wind gust speed)